STARLINK-34511

Last updated on Sat Sep 13 2025 00:02:06 GMT+0000 (Coordinated Universal Time)

1 65214U 25176S 25255.58335648 -.02615923 00000+0 -68989-1 0 9990 2 65214 53.1594 263.7523 0001983 75.6490 114.5782 15.41892837 5828
UTC large
Height (km)
Speed (km/s)
/
Latitude / Longitude
Inclination (degrees)
Orbital Period (minutes)
Azimuth
Elevation
Range (km)
Doppler Factor

Next 0 passes for location: London (51.5072 / 0.1276)

Sorry there are no passes over London.